This is the latest recevied weather packets stored in our database for station/object KN6CW-3. If no packets are shown the sender has not sent any weather packets the latest 10 day(s).
| Time | Temp. | Humidity | Pressure | Rain* | Wind** | Luminosity | Snow |
|---|---|---|---|---|---|---|---|
| 1777754422 | 10° C | 49% | 1011.5 hPa | 0 mm | - | 169 W/m² | - |
| 1777754122 | 10° C | 47% | 1011.5 hPa | 0 mm | - | 163 W/m² | - |
| 1777753821 | 10.56° C | 44% | 1011.5 hPa | 0 mm | - | 172 W/m² | - |
| 1777753521 | 10° C | 46% | 1011.5 hPa | 0 mm | - | 738 W/m² | - |
| 1777753221 | 9.44° C | 50% | 1011.5 hPa | 0 mm | - | 288 W/m² | - |
| 1777752956 | 10° C | 46% | 1011.6 hPa | 0 mm | - | 281 W/m² | - |
| 1777752920 | 10° C | 46% | 1011.6 hPa | 0 mm | - | 281 W/m² | - |
| 1777752620 | 10° C | 47% | 1011.6 hPa | 0 mm | - | 323 W/m² | - |
| 1777752320 | 10° C | 48% | 1011.6 hPa | 0 mm | - | 422 W/m² | - |
| 1777752020 | 10° C | 48% | 1011.7 hPa | 0 mm | - | 278 W/m² | - |
| 1777751719 | 10° C | 47% | 1011.8 hPa | 0 mm | - | 315 W/m² | - |
| 1777751419 | 10° C | 47% | 1011.8 hPa | 0 mm | - | 271 W/m² | - |
| 1777751119 | 10° C | 47% | 1011.9 hPa | 0 mm | - | 220 W/m² | - |
| 1777750818 | 10° C | 47% | 1011.9 hPa | 0 mm | - | 251 W/m² | - |
| 1777750518 | 10.56° C | 44% | 1012 hPa | 0 mm | - | 267 W/m² | - |
| 1777750218 | 10.56° C | 44% | 1012.1 hPa | 0 mm | - | 274 W/m² | - |
| 1777749917 | 11.11° C | 44% | 1012.1 hPa | 0 mm | - | 1030 W/m² | - |
| 1777749617 | 10.56° C | 48% | 1012.2 hPa | 0 mm | - | 566 W/m² | - |
| 1777749317 | 10° C | 48% | 1012.3 hPa | 0 mm | - | 396 W/m² | - |
| 1777749017 | 9.44° C | 48% | 1012.5 hPa | 0 mm | - | 301 W/m² | - |
| 1777748716 | 9.44° C | 48% | 1012.5 hPa | 0 mm | - | 311 W/m² | - |
| 1777748416 | 9.44° C | 47% | 1012.5 hPa | 0 mm | - | 279 W/m² | - |
| 1777748116 | 10° C | 46% | 1012.6 hPa | 0 mm | - | 229 W/m² | - |
| 1777747816 | 10° C | 47% | 1012.7 hPa | 0 mm | - | 265 W/m² | - |
| 1777747515 | 10° C | 48% | 1012.7 hPa | 0 mm | - | 302 W/m² | - |
* Rain latest hour (hover to see other rain measurements)
** Current wind speed in m/s (hover to see current wind gust speed)